TimeCDT,TemperatureF,Dew PointF,Humidity,Sea Level PressureIn,VisibilityMPH,Wind Direction,Wind SpeedMPH,Gust SpeedMPH,PrecipitationIn,Events,Conditions,WindDirDegrees,DateUTC
12:58 AM,78.1,65.3,65,29.71,10.0,SSE,18.4,-,N/A,,Scattered Clouds,150,2013-10-04 05:58:00
1:58 AM,76.6,65.1,67,29.72,10.0,SSE,12.7,-,N/A,,Clear,150,2013-10-04 06:58:00
2:58 AM,76.1,65.3,69,29.74,10.0,SSE,11.5,-,N/A,,Scattered Clouds,150,2013-10-04 07:58:00
3:58 AM,75.9,65.3,70,29.74,10.0,SSE,15.0,-,N/A,,Mostly Cloudy,150,2013-10-04 08:58:00
4:58 AM,74.8,65.7,73,29.73,10.0,SE,13.8,-,N/A,,Scattered Clouds,140,2013-10-04 09:58:00
5:58 AM,73.6,66.0,77,29.73,10.0,SE,15.0,-,N/A,,Scattered Clouds,140,2013-10-04 10:58:00
6:58 AM,73.0,66.2,79,29.75,10.0,SE,13.8,-,N/A,,Scattered Clouds,140,2013-10-04 11:58:00
7:58 AM,73.0,66.6,80,29.75,10.0,SSE,17.3,25.3,N/A,,Partly Cloudy,150,2013-10-04 12:58:00
8:58 AM,74.7,67.3,78,29.77,10.0,South,18.4,23.0,N/A,,Partly Cloudy,180,2013-10-04 13:58:00
9:58 AM,79.5,67.3,66,29.78,10.0,South,20.7,31.1,N/A,,Clear,170,2013-10-04 14:58:00
10:58 AM,82.4,67.1,60,29.77,10.0,South,20.7,29.9,N/A,,Clear,180,2013-10-04 15:58:00
11:58 AM,85.1,67.3,55,29.76,10.0,South,17.3,28.8,N/A,,Clear,170,2013-10-04 16:58:00
12:58 PM,87.3,66.7,50,29.76,10.0,SSE,17.3,27.6,N/A,,Partly Cloudy,160,2013-10-04 17:58:00
1:58 PM,88.3,66.4,48,29.74,10.0,South,20.7,27.6,N/A,,Partly Cloudy,170,2013-10-04 18:58:00
2:58 PM,89.1,66.9,48,29.72,10.0,South,21.9,26.5,N/A,,Scattered Clouds,170,2013-10-04 19:58:00
3:58 PM,90.1,66.6,46,29.71,10.0,South,16.1,27.6,N/A,,Scattered Clouds,170,2013-10-04 20:58:00
4:58 PM,90.5,65.7,44,29.70,10.0,South,20.7,25.3,N/A,,Clear,170,2013-10-04 21:58:00
5:58 PM,88.7,66.9,48,29.70,10.0,SSE,21.9,26.5,N/A,,Clear,150,2013-10-04 22:58:00
6:58 PM,86.0,66.9,53,29.68,10.0,SSE,23.0,29.9,N/A,,Clear,150,2013-10-04 23:58:00
7:58 PM,83.7,66.2,56,29.69,10.0,SSE,18.4,26.5,N/A,,Clear,150,2013-10-05 00:58:00
8:58 PM,82.6,66.2,58,29.70,10.0,SSE,17.3,25.3,N/A,,Mostly Cloudy,150,2013-10-05 01:58:00
9:58 PM,80.8,66.0,61,29.75,10.0,NE,6.9,-,N/A,,Mostly Cloudy,40,2013-10-05 02:58:00
10:18 PM,78.8,60.8,54,29.82,10.0,North,18.4,25.3,N/A,Thunderstorm,Mostly Cloudy,360,2013-10-05 03:18:00
10:31 PM,73.4,62.6,69,29.82,10.0,North,17.3,-,N/A,Thunderstorm,Thunderstorm,350,2013-10-05 03:31:00
10:51 PM,-9999,-9999,N/A,29.82,7.0,North,5.8,-,N/A,Rain-Thunderstorm,Light Rain Showers,10,2013-10-05 03:51:00
10:58 PM,74.1,65.1,73,29.81,7.0,Variable,5.8,-,0.04,Rain-Thunderstorm,Light Thunderstorms and Rain,0,2013-10-05 03:58:00
11:11 PM,71.6,66.2,83,29.85,4.0,North,26.5,33.4,N/A,Rain-Thunderstorm,Light Thunderstorms and Rain,350,2013-10-05 04:11:00
11:17 PM,69.8,66.2,88,29.86,10.0,North,23.0,36.8,N/A,Rain-Thunderstorm,Light Thunderstorms and Rain,10,2013-10-05 04:17:00
11:28 PM,68.0,64.4,88,29.89,10.0,North,25.3,36.8,N/A,Rain-Thunderstorm,Thunderstorms and Rain,10,2013-10-05 04:28:00
11:51 PM,62.6,55.4,77,29.90,2.5,NNE,33.4,42.6,N/A,Rain-Thunderstorm,Heavy Thunderstorms and Rain,20,2013-10-05 04:51:00
11:58 PM,60.6,56.5,86,29.88,2.5,NNE,25.3,42.6,0.39,Rain-Thunderstorm,Heavy Thunderstorms and Rain,20,2013-10-05 04:58:00